Regional Weather Roundup
Issued by NWS State College, PA

Home | Current Version | Previous Version | Graphics & Text | Print | Product List | Glossary On
Versions: 1 2 3 4 5 6 7 8 9 10 11 12 13 14 15 16 17 18 19 20 21 22 23 24 25 26 27 28 29 30 31 32 33 34 35 36 37 38 39 40 41 42 43 44 45 46 47 48 49 50
000
ASUS41 KCTP 241703
RWRCTP

REGIONAL WEATHER ROUNDUP
NATIONAL WEATHER SERVICE STATE COLLEGE PA
1200 PM EST FRI FEB 24 2017

Note: "fair" indicates few or no clouds below 12,000 feet with no
significant weather and/or obstructions to visibility.

* = STATION THAT DOES NOT REPORT PRECIPITATION /E.G. RAIN...SNOW...ETC/
    THUNDER OR FOG.

PAZ002>004-007>009-013>016-020>023-029>032-241800-
WESTERN PENNSYLVANIA

CITY           SKY/WX    TMP DP  RH WIND       PRES   REMARKS
ERIE           MOSUNNY   72  54  53 SW24G40   29.67S
MEADVILLE      SUNNY     69  52  54 SW13G25   29.71F
FRANKLIN*      MOSUNNY   66  52  59 S16G24    29.75F
NEW CASTLE     PTSUNNY   71  54  54 SW13G22   29.74F
BEAVER COUNTY  PTSUNNY   72  52  49 SW13G26   29.75F
BUTLER*        MOSUNNY   73  54  49 S14G21    29.77F
PITTSBURGH INT PTSUNNY   72  51  47 SW21G28   29.76F
PITTSBURGH     MOSUNNY   73  49  42 SW14G26   29.77F
INDIANA*       PTSUNNY   72  54  53 W13G23    29.82F
LATROBE        MOSUNNY   72  50  46 SW12G25   29.81F
WASHINGTON CO* PTSUNNY   73  52  46 SW10G20   29.80F
$$

PAZ004>006-010>012-017>019-024>028-033>037-041-042-045-046-049>053-241800-
CENTRAL PENNSYLVANIA

CITY           SKY/WX    TMP DP  RH WIND       PRES   REMARKS
BRADFORD         N/A    N/A N/A N/A SW14G29   29.76F
DUBOIS         SUNNY     70  50  49 SW21G28   29.77F
CLEARFIELD       N/A    N/A N/A N/A MISG      29.79F
JOHNSTOWN      SUNNY     68  50  52 S15       29.83F
ALTOONA        MOSUNNY   71  53  52 S14       29.83F
STATE COLLEGE  MOSUNNY   70  50  49 S10       29.82F
WILLIAMSPORT   PTSUNNY   69  52  54 VRB3      29.81F
SELINSGROVE    SUNNY     70  54  56 SW10G20   29.85F
FT INDIANTOWN  SUNNY     70  56  60 S10       29.86F
CAPITAL CITY   SUNNY     75  51  43 S10G20    29.85F
HARRISBURG     PTSUNNY   73  52  47 S10G21    29.85F
YORK           SUNNY     72  54  53 SW9       29.86F
$$

PAZ038>040-043-044-047-048-054-055-060>062-067>071-241800-
EASTERN PENNSYLVANIA

CITY           SKY/WX    TMP DP  RH WIND       PRES   REMARKS
SCRANTON       MOSUNNY   73  52  47 S10G18    29.85F
MOUNT POCONO   MOSUNNY   63  52  67 S16G23    29.90F
ALLENTOWN      SUNNY     73  52  47 SW14      29.89F
QUAKERTOWN*    SUNNY     70  54  56 SW12G20   29.91F
READING        SUNNY     73  55  53 SW12      29.87F
LANCASTER      SUNNY     72  56  57 S9        29.88F
COATESVILLE    SUNNY     70  54  56 S12G18    29.91F
POTTSTOWN      SUNNY     71  52  50 SW12      29.91F
BLUE BELL      SUNNY     70  54  56 S8        29.90F
DOYLESTOWN     SUNNY     71  53  52 S12G17    29.90F
WILLOW GROVE   NOT AVBL
NORTH PHILA    MOSUNNY   73  56  54 S8        29.93F
PHILADELPHIA   MOSUNNY   72  54  53 SW14      29.92F
$$



USA.gov is the U.S. government's official web portal to all federal, state and local government web resources and services.